Torna al catalogo

GLOBALSTAR M044

AttivoComunicazioniLEO
NORAD 25678·PAYLOAD·🇺🇸 United States

Lanciato Apr 15, 1999 da Baikonur Cosmodrome

Loading…

Prossimi Passaggi (prossime 24 ore)

TLE

AggiornatoSource: Space-Track

Epoca: Sep 14, 2026, 10:32 UTC

1 25678U 99019C   26257.43898823 -.00000075  00000-0  12508-3 0  9995
2 25678  51.9949 261.0569 0005953 192.5506 333.8538 11.90266756225416

Traccia GLOBALSTAR M044 in tempo reale con AllMySat

Download on the App Store